Station Historical Data
Daily Summary for September 22, 2017 Units:  English    Metric   Both
« Previous Day
Next Day »
Daily Weekly Monthly Yearly Custom
  High: Low: Average:
Temperature: 88.4 °F 67.0 °F 75.1 °F
Dew Point: 70.0 °F 64.1 °F 66.4 °F
Humidity: 91% 48% 76%
Wind Speed: 5.0mph 1.0mph 3.2mph
Wind Gust: 5.0mph - -
Wind- - ENE
Pressure: 30.09 in 29.98 in -
Precipitation: 0.00 in    
Historical Graphs
 
 
Tabular Data for September 22, 2017
Time Temperature Dew Point Pressure Wind Wind Speed Wind Gust Humidity Rainfall Rate (Hourly) Conditions
00:00 71.0 °F 66.2 °F 30.03 in ENE 3.0 mph 3.0 mph 85% 0.00 in SCT
00:10 70.8 °F 66.1 °F 30.03 in ENE 3.0 mph 3.0 mph 85% 0.00 in SCT
00:15 70.6 °F 65.9 °F 30.03 in ENE 3.0 mph 3.0 mph 85% 0.00 in CLR
00:20 70.5 °F 66.1 °F 30.03 in ENE 3.0 mph 3.0 mph 86% 0.00 in CLR
00:25 70.4 °F 66.0 °F 30.03 in ENE 3.0 mph 3.0 mph 86% 0.00 in CLR
00:30 70.3 °F 65.9 °F 30.03 in ENE 3.0 mph 3.0 mph 86% 0.00 in CLR
00:35 70.2 °F 65.8 °F 30.03 in ENE 3.0 mph 3.0 mph 86% 0.00 in CLR
00:40 70.1 °F 65.8 °F 30.03 in ENE 3.0 mph 3.0 mph 86% 0.00 in CLR
00:45 70.1 °F 65.7 °F 30.03 in ENE 3.0 mph 3.0 mph 86% 0.00 in CLR
00:50 70.1 °F 65.7 °F 30.03 in ENE 3.0 mph 3.0 mph 86% 0.00 in CLR
00:55 69.9 °F 65.5 °F 30.03 in ENE 3.0 mph 3.0 mph 86% 0.00 in CLR
01:00 69.8 °F 65.4 °F 30.03 in ENE 3.0 mph 3.0 mph 86% 0.00 in CLR
01:10 69.6 °F 65.6 °F 30.03 in ENE 3.0 mph 3.0 mph 87% 0.00 in CLR
01:15 69.5 °F 65.5 °F 30.03 in ENE 3.0 mph 3.0 mph 87% 0.00 in CLR
01:20 69.4 °F 65.4 °F 30.03 in ENE 3.0 mph 3.0 mph 87% 0.00 in CLR
01:25 69.4 °F 65.7 °F 30.03 in ENE 3.0 mph 3.0 mph 88% 0.00 in CLR
01:30 69.2 °F 65.5 °F 30.03 in ENE 3.0 mph 3.0 mph 88% 0.00 in CLR
01:35 69.2 °F 65.5 °F 30.03 in ENE 3.0 mph 3.0 mph 88% 0.00 in CLR
01:40 69.1 °F 65.4 °F 30.03 in ENE 3.0 mph 3.0 mph 88% 0.00 in CLR
01:45 69.1 °F 65.4 °F 30.03 in ENE 3.0 mph 3.0 mph 88% 0.00 in CLR
01:50 69.1 °F 65.7 °F 30.03 in ENE 3.0 mph 3.0 mph 89% 0.00 in CLR
01:55 69.1 °F 65.7 °F 30.03 in ENE 3.0 mph 3.0 mph 89% 0.00 in CLR
02:00 69.1 °F 65.7 °F 30.03 in ENE 3.0 mph 3.0 mph 89% 0.00 in CLR
02:05 69.0 °F 65.6 °F 30.03 in ENE 3.0 mph 3.0 mph 89% 0.00 in CLR
02:10 68.9 °F 65.5 °F 30.03 in ENE 3.0 mph 3.0 mph 89% 0.00 in CLR
02:15 68.8 °F 65.4 °F 30.03 in ENE 3.0 mph 3.0 mph 89% 0.00 in CLR
02:20 68.8 °F 65.4 °F 30.02 in ENE 3.0 mph 3.0 mph 89% 0.00 in CLR
02:25 68.7 °F 65.3 °F 30.02 in ENE 3.0 mph 3.0 mph 89% 0.00 in CLR
02:30 68.6 °F 65.2 °F 30.02 in ENE 3.0 mph 3.0 mph 89% 0.00 in CLR
02:35 68.5 °F 65.1 °F 30.02 in ENE 3.0 mph 3.0 mph 89% 0.00 in CLR
02:40 68.3 °F 64.9 °F 30.02 in ENE 3.0 mph 3.0 mph 89% 0.00 in CLR
02:45 68.2 °F 64.8 °F 30.02 in ENE 3.0 mph 3.0 mph 89% 0.00 in CLR
02:50 68.1 °F 65.1 °F 30.02 in ENE 3.0 mph 3.0 mph 90% 0.00 in CLR
02:55 68.0 °F 65.0 °F 30.02 in ENE 3.0 mph 3.0 mph 90% 0.00 in CLR
03:00 68.0 °F 65.0 °F 30.03 in ENE 3.0 mph 3.0 mph 90% 0.00 in CLR
03:05 68.0 °F 65.0 °F 30.02 in ENE 3.0 mph 3.0 mph 90% 0.00 in CLR
03:10 67.9 °F 64.9 °F 30.02 in ENE 3.0 mph 3.0 mph 90% 0.00 in CLR
03:15 67.9 °F 64.9 °F 30.02 in ENE 3.0 mph 3.0 mph 90% 0.00 in CLR
03:20 67.9 °F 64.9 °F 30.02 in ENE 3.0 mph 3.0 mph 90% 0.00 in CLR
03:25 67.9 °F 64.9 °F 30.02 in ENE 3.0 mph 3.0 mph 90% 0.00 in CLR
03:30 67.9 °F 64.9 °F 30.02 in ENE 3.0 mph 3.0 mph 90% 0.00 in CLR
03:35 67.9 °F 64.9 °F 30.03 in ENE 3.0 mph 3.0 mph 90% 0.00 in CLR
03:40 67.9 °F 64.9 °F 30.02 in ENE 3.0 mph 3.0 mph 90% 0.00 in CLR
03:45 67.8 °F 64.8 °F 30.02 in ENE 3.0 mph 3.0 mph 90% 0.00 in CLR
03:50 67.7 °F 64.7 °F 30.02 in ENE 3.0 mph 3.0 mph 90% 0.00 in CLR
03:55 67.7 °F 64.7 °F 30.02 in ENE 3.0 mph 3.0 mph 90% 0.00 in CLR
04:00 67.6 °F 64.6 °F 30.02 in ENE 3.0 mph 3.0 mph 90% 0.00 in CLR
04:05 67.6 °F 64.5 °F 30.02 in ENE 3.0 mph 3.0 mph 90% 0.00 in CLR
04:10 67.5 °F 64.5 °F 30.02 in ENE 3.0 mph 3.0 mph 90% 0.00 in CLR
04:15 67.5 °F 64.8 °F 30.02 in NE 3.0 mph 3.0 mph 91% 0.00 in CLR
04:20 67.5 °F 64.8 °F 30.02 in NE 3.0 mph 3.0 mph 91% 0.00 in CLR
04:25 67.6 °F 64.9 °F 30.02 in NE 3.0 mph 3.0 mph 91% 0.00 in CLR
04:30 67.6 °F 64.9 °F 30.02 in NE 3.0 mph 3.0 mph 91% 0.00 in CLR
04:35 67.6 °F 64.9 °F 30.02 in NE 3.0 mph 3.0 mph 91% 0.00 in CLR
04:45 67.6 °F 64.9 °F 30.03 in NE 3.0 mph 3.0 mph 91% 0.00 in CLR
04:50 67.5 °F 64.5 °F 30.03 in NE 3.0 mph 3.0 mph 90% 0.00 in CLR
04:55 67.5 °F 64.8 °F 30.03 in NE 3.0 mph 3.0 mph 91% 0.00 in CLR
05:00 67.5 °F 64.8 °F 30.03 in NE 3.0 mph 3.0 mph 91% 0.00 in CLR
05:05 67.5 °F 64.8 °F 30.03 in NE 3.0 mph 3.0 mph 91% 0.00 in CLR
05:10 67.6 °F 64.6 °F 30.03 in NE 3.0 mph 3.0 mph 90% 0.00 in CLR
05:20 67.6 °F 64.6 °F 30.03 in NNE 3.0 mph 3.0 mph 90% 0.00 in CLR
05:25 67.6 °F 64.6 °F 30.04 in NNE 3.0 mph 3.0 mph 90% 0.00 in CLR
05:30 67.6 °F 64.6 °F 30.04 in NNE 3.0 mph 3.0 mph 90% 0.00 in CLR
05:35 67.6 °F 64.6 °F 30.04 in NNE 3.0 mph 3.0 mph 90% 0.00 in CLR
05:40 67.6 °F 64.6 °F 30.04 in NNE 3.0 mph 3.0 mph 90% 0.00 in CLR
05:45 67.6 °F 64.6 °F 30.04 in NNE 3.0 mph 3.0 mph 90% 0.00 in CLR
05:50 67.6 °F 64.6 °F 30.04 in NNE 3.0 mph 3.0 mph 90% 0.00 in CLR
05:55 67.6 °F 64.6 °F 30.04 in NNE 3.0 mph 3.0 mph 90% 0.00 in CLR
06:00 67.6 °F 64.6 °F 30.04 in NNE 3.0 mph 3.0 mph 90% 0.00 in CLR
06:05 67.6 °F 64.6 °F 30.04 in NNE 3.0 mph 3.0 mph 90% 0.00 in CLR
06:10 67.6 °F 64.6 °F 30.05 in NNE 3.0 mph 3.0 mph 90% 0.00 in CLR
06:15 67.6 °F 64.6 °F 30.05 in NNE 3.0 mph 3.0 mph 90% 0.00 in OVC
06:20 67.5 °F 64.5 °F 30.05 in NNE 3.0 mph 3.0 mph 90% 0.00 in OVC
06:25 67.5 °F 64.5 °F 30.05 in NNE 3.0 mph 3.0 mph 90% 0.00 in OVC
06:30 67.5 °F 64.5 °F 30.05 in NNE 3.0 mph 3.0 mph 90% 0.00 in OVC
06:35 67.4 °F 64.4 °F 30.05 in NNE 3.0 mph 3.0 mph 90% 0.00 in OVC
06:40 67.4 °F 64.4 °F 30.05 in NNE 3.0 mph 3.0 mph 90% 0.00 in OVC
06:45 67.3 °F 64.3 °F 30.06 in NE 3.0 mph 3.0 mph 90% 0.00 in -RA
06:50 67.3 °F 64.3 °F 30.06 in NE 3.0 mph 3.0 mph 90% 0.00 in -RA
06:55 67.3 °F 64.3 °F 30.06 in NE 3.0 mph 3.0 mph 90% 0.00 in -RA
07:00 67.2 °F 64.2 °F 30.06 in NE 3.0 mph 3.0 mph 90% 0.00 in -RA
07:05 67.2 °F 64.2 °F 30.06 in NE 3.0 mph 3.0 mph 90% 0.00 in -RA
07:10 67.2 °F 64.2 °F 30.06 in NE 3.0 mph 3.0 mph 90% 0.00 in -RA
07:15 67.1 °F 64.1 °F 30.06 in NE 3.0 mph 3.0 mph 90% 0.00 in SCT
07:20 67.1 °F 64.1 °F 30.06 in NE 3.0 mph 3.0 mph 90% 0.00 in SCT
07:25 67.1 °F 64.4 °F 30.07 in NE 3.0 mph 3.0 mph 91% 0.00 in SCT
07:30 67.0 °F 64.3 °F 30.06 in NE 3.0 mph 3.0 mph 91% 0.00 in SCT
07:40 67.0 °F 64.3 °F 30.07 in NE 3.0 mph 3.0 mph 91% 0.00 in SCT
07:45 67.0 °F 64.3 °F 30.07 in NE 3.0 mph 3.0 mph 91% 0.00 in SCT
07:50 67.0 °F 64.3 °F 30.07 in NE 3.0 mph 3.0 mph 91% 0.00 in SCT
07:55 67.1 °F 64.4 °F 30.07 in NE 3.0 mph 3.0 mph 91% 0.00 in SCT
08:00 67.2 °F 64.5 °F 30.07 in NE 3.0 mph 3.0 mph 91% 0.00 in SCT
08:05 67.3 °F 64.6 °F 30.07 in NE 3.0 mph 3.0 mph 91% 0.00 in SCT
08:10 67.3 °F 64.6 °F 30.07 in NE 3.0 mph 3.0 mph 91% 0.00 in SCT
08:15 67.4 °F 64.7 °F 30.07 in NE 3.0 mph 3.0 mph 91% 0.00 in FEW
08:20 67.5 °F 64.8 °F 30.07 in NE 3.0 mph 3.0 mph 91% 0.00 in FEW
08:25 67.7 °F 65.0 °F 30.07 in NE 3.0 mph 3.0 mph 91% 0.00 in FEW
08:30 67.9 °F 65.2 °F 30.07 in NE 3.0 mph 3.0 mph 91% 0.00 in FEW
08:35 68.2 °F 65.4 °F 30.07 in NE 3.0 mph 3.0 mph 91% 0.00 in FEW
08:40 68.4 °F 65.7 °F 30.07 in NE 3.0 mph 3.0 mph 91% 0.00 in FEW
08:45 68.7 °F 65.7 °F 30.07 in NE 3.0 mph 3.0 mph 90% 0.00 in FEW
08:50 69.0 °F 66.0 °F 30.07 in NE 3.0 mph 3.0 mph 90% 0.00 in FEW
08:55 69.5 °F 66.1 °F 30.07 in NE 3.0 mph 3.0 mph 89% 0.00 in FEW
09:00 69.9 °F 66.2 °F 30.07 in NE 3.0 mph 3.0 mph 88% 0.00 in FEW
09:10 70.6 °F 66.2 °F 30.08 in NE 3.0 mph 3.0 mph 86% 0.00 in FEW
09:15 71.0 °F 66.2 °F 30.08 in ENE 5.0 mph 5.0 mph 85% 0.00 in FEW
09:20 71.4 °F 66.3 °F 30.08 in East 5.0 mph 5.0 mph 84% 0.00 in FEW
09:25 71.8 °F 66.3 °F 30.08 in East 5.0 mph 5.0 mph 83% 0.00 in FEW
09:30 72.1 °F 66.6 °F 30.08 in East 5.0 mph 5.0 mph 83% 0.00 in FEW
09:40 72.7 °F 66.5 °F 30.08 in East 5.0 mph 5.0 mph 81% 0.00 in FEW
09:45 72.9 °F 66.8 °F 30.08 in East 5.0 mph 5.0 mph 81% 0.00 in FEW
09:50 73.3 °F 66.7 °F 30.08 in East 5.0 mph 5.0 mph 80% 0.00 in FEW
09:55 73.7 °F 66.7 °F 30.08 in East 5.0 mph 5.0 mph 79% 0.00 in FEW
10:00 74.1 °F 67.2 °F 30.08 in East 5.0 mph 5.0 mph 79% 0.00 in FEW
10:05 74.4 °F 67.5 °F 30.08 in East 5.0 mph 5.0 mph 79% 0.00 in FEW
10:10 74.7 °F 67.0 °F 30.08 in East 5.0 mph 5.0 mph 77% 0.00 in FEW
10:15 74.9 °F 67.2 °F 30.08 in East 5.0 mph 5.0 mph 77% 0.00 in FEW
10:20 75.1 °F 66.6 °F 30.08 in East 5.0 mph 5.0 mph 75% 0.00 in FEW
10:25 75.3 °F 67.2 °F 30.08 in East 5.0 mph 5.0 mph 76% 0.00 in FEW
10:30 75.7 °F 67.6 °F 30.08 in East 5.0 mph 5.0 mph 76% 0.00 in FEW
10:35 76.0 °F 67.9 °F 30.08 in East 5.0 mph 5.0 mph 76% 0.00 in FEW
10:40 76.7 °F 68.2 °F 30.08 in East 5.0 mph 5.0 mph 75% 0.00 in FEW
10:45 77.7 °F 69.1 °F 30.09 in East 5.0 mph 5.0 mph 75% 0.00 in FEW
10:50 78.2 °F 68.4 °F 30.09 in East 5.0 mph 5.0 mph 72% 0.00 in FEW
10:55 78.8 °F 68.6 °F 30.09 in East 5.0 mph 5.0 mph 71% 0.00 in FEW
11:00 79.3 °F 69.1 °F 30.09 in East 5.0 mph 5.0 mph 71% 0.00 in FEW
11:05 80.0 °F 69.8 °F 30.09 in East 5.0 mph 5.0 mph 71% 0.00 in FEW
11:10 80.5 °F 69.4 °F 30.08 in East 5.0 mph 5.0 mph 69% 0.00 in FEW
11:15 81.1 °F 70.0 °F 30.08 in East 5.0 mph 5.0 mph 69% 0.00 in CLR
11:20 81.5 °F 69.0 °F 30.08 in East 5.0 mph 5.0 mph 66% 0.00 in CLR
11:30 82.2 °F 69.7 °F 30.08 in East 5.0 mph 5.0 mph 66% 0.00 in CLR
11:40 83.0 °F 69.1 °F 30.08 in East 5.0 mph 5.0 mph 63% 0.00 in CLR
11:45 82.6 °F 68.3 °F 30.08 in East 5.0 mph 5.0 mph 62% 0.00 in CLR
11:50 82.5 °F 68.6 °F 30.08 in East 5.0 mph 5.0 mph 63% 0.00 in CLR
11:55 83.2 °F 68.8 °F 30.08 in East 5.0 mph 5.0 mph 62% 0.00 in CLR
12:00 83.6 °F 69.2 °F 30.07 in East 5.0 mph 5.0 mph 62% 0.00 in CLR
12:05 84.1 °F 69.2 °F 30.07 in East 5.0 mph 5.0 mph 61% 0.00 in CLR
12:10 84.7 °F 69.3 °F 30.07 in East 5.0 mph 5.0 mph 60% 0.00 in CLR
12:15 84.7 °F 68.7 °F 30.07 in ENE 3.0 mph 5.0 mph 59% 0.00 in FEW
12:20 85.0 °F 68.6 °F 30.07 in ENE 3.0 mph 3.0 mph 58% 0.00 in FEW
12:25 84.7 °F 68.8 °F 30.07 in ENE 3.0 mph 3.0 mph 59% 0.00 in FEW
12:30 85.2 °F 69.8 °F 30.07 in ENE 3.0 mph 3.0 mph 60% 0.00 in FEW
12:35 85.7 °F 68.2 °F 30.06 in ENE 3.0 mph 3.0 mph 56% 0.00 in FEW
12:40 86.4 °F 68.8 °F 30.06 in ENE 3.0 mph 3.0 mph 56% 0.00 in FEW
12:45 86.5 °F 69.5 °F 30.06 in ENE 3.0 mph 3.0 mph 57% 0.00 in FEW
12:50 86.3 °F 68.2 °F 30.06 in ENE 3.0 mph 3.0 mph 55% 0.00 in FEW
12:55 86.7 °F 69.1 °F 30.06 in ENE 3.0 mph 3.0 mph 56% 0.00 in FEW
13:00 86.5 °F 68.9 °F 30.06 in ENE 3.0 mph 3.0 mph 56% 0.00 in FEW
13:05 86.7 °F 68.6 °F 30.05 in ENE 3.0 mph 3.0 mph 55% 0.00 in FEW
13:10 86.8 °F 68.7 °F 30.05 in ENE 3.0 mph 3.0 mph 55% 0.00 in FEW
13:15 86.6 °F 68.5 °F 30.04 in NE 3.0 mph 3.0 mph 55% 0.00 in FEW
13:20 86.3 °F 68.2 °F 30.04 in NNE 3.0 mph 3.0 mph 55% 0.00 in FEW
13:25 86.3 °F 69.3 °F 30.04 in NNE 3.0 mph 3.0 mph 57% 0.00 in FEW
13:30 86.3 °F 68.2 °F 30.04 in NNE 3.0 mph 3.0 mph 55% 0.00 in FEW
13:40 85.9 °F 67.9 °F 30.04 in NNE 3.0 mph 3.0 mph 55% 0.00 in FEW
13:45 85.4 °F 67.9 °F 30.04 in NNE 3.0 mph 3.0 mph 56% 0.00 in FEW
13:50 85.9 °F 68.9 °F 30.03 in NNE 3.0 mph 3.0 mph 57% 0.00 in FEW
13:55 87.1 °F 67.9 °F 30.03 in NNE 3.0 mph 3.0 mph 53% 0.00 in FEW
14:00 87.4 °F 67.6 °F 30.03 in NNE 3.0 mph 3.0 mph 52% 0.00 in FEW
14:05 87.3 °F 67.5 °F 30.03 in NNE 3.0 mph 3.0 mph 52% 0.00 in FEW
14:10 87.5 °F 69.3 °F 30.03 in NNE 3.0 mph 3.0 mph 55% 0.00 in FEW
14:15 87.7 °F 67.3 °F 30.03 in NE 3.0 mph 3.0 mph 51% 0.00 in BKN
14:20 88.1 °F 66.5 °F 30.03 in NE 3.0 mph 3.0 mph 49% 0.00 in BKN
14:25 88.3 °F 67.9 °F 30.03 in NE 3.0 mph 3.0 mph 51% 0.00 in BKN
14:30 88.4 °F 66.8 °F 30.02 in NE 3.0 mph 3.0 mph 49% 0.00 in BKN
14:35 88.2 °F 67.2 °F 30.02 in NE 3.0 mph 3.0 mph 50% 0.00 in BKN
14:40 88.0 °F 65.8 °F 30.02 in NE 3.0 mph 3.0 mph 48% 0.00 in BKN
14:45 87.4 °F 65.3 °F 30.02 in NE 3.0 mph 3.0 mph 48% 0.00 in BKN
14:50 86.5 °F 67.3 °F 30.02 in NE 3.0 mph 3.0 mph 53% 0.00 in BKN
14:55 86.3 °F 68.2 °F 30.02 in NE 3.0 mph 3.0 mph 55% 0.00 in BKN
15:00 86.2 °F 68.1 °F 30.02 in NE 3.0 mph 3.0 mph 55% 0.00 in BKN
15:05 85.8 °F 68.8 °F 30.01 in NE 3.0 mph 3.0 mph 57% 0.00 in BKN
15:10 84.9 °F 69.0 °F 30.01 in NE 3.0 mph 3.0 mph 59% 0.00 in BKN
15:15 83.9 °F 69.5 °F 30.01 in NE 3.0 mph 3.0 mph 62% 0.00 in SCT
15:20 83.6 °F 68.7 °F 30.01 in ENE 3.0 mph 3.0 mph 61% 0.00 in SCT
15:30 84.1 °F 67.7 °F 30.01 in ENE 3.0 mph 3.0 mph 58% 0.00 in SCT
15:35 84.3 °F 67.9 °F 30.01 in ENE 3.0 mph 3.0 mph 58% 0.00 in SCT
15:40 84.5 °F 67.6 °F 30.01 in ENE 3.0 mph 3.0 mph 57% 0.00 in SCT
15:45 84.7 °F 68.3 °F 30.01 in ENE 3.0 mph 3.0 mph 58% 0.00 in SCT
15:50 84.8 °F 66.8 °F 30.00 in ENE 3.0 mph 3.0 mph 55% 0.00 in SCT
15:55 84.9 °F 66.4 °F 30.00 in ENE 3.0 mph 3.0 mph 54% 0.00 in SCT
16:00 85.0 °F 66.5 °F 30.00 in ENE 3.0 mph 3.0 mph 54% 0.00 in SCT
16:05 85.1 °F 67.1 °F 30.00 in ENE 3.0 mph 3.0 mph 55% 0.00 in SCT
16:10 85.1 °F 67.1 °F 29.99 in ENE 3.0 mph 3.0 mph 55% 0.00 in SCT
16:15 85.1 °F 66.0 °F 29.99 in ENE 3.0 mph 3.0 mph 53% 0.00 in SCT
16:20 85.1 °F 66.6 °F 29.99 in East 3.0 mph 3.0 mph 54% 0.00 in SCT
16:25 85.4 °F 67.9 °F 29.99 in East 3.0 mph 3.0 mph 56% 0.00 in SCT
16:30 85.5 °F 67.5 °F 29.99 in East 3.0 mph 3.0 mph 55% 0.00 in SCT
16:40 85.6 °F 66.5 °F 29.99 in East 3.0 mph 3.0 mph 53% 0.00 in SCT
16:45 85.6 °F 67.6 °F 29.98 in East 3.0 mph 3.0 mph 55% 0.00 in SCT
16:50 85.5 °F 67.5 °F 29.99 in East 3.0 mph 3.0 mph 55% 0.00 in SCT
16:55 85.2 °F 67.7 °F 29.99 in East 3.0 mph 3.0 mph 56% 0.00 in SCT
17:00 84.9 °F 66.9 °F 29.99 in East 3.0 mph 3.0 mph 55% 0.00 in SCT
17:10 84.9 °F 66.9 °F 29.98 in East 3.0 mph 3.0 mph 55% 0.00 in SCT
17:15 84.7 °F 66.2 °F 29.98 in ENE 5.0 mph 5.0 mph 54% 0.00 in SCT
17:20 84.1 °F 66.7 °F 29.99 in ENE 5.0 mph 5.0 mph 56% 0.00 in SCT
17:25 83.6 °F 65.7 °F 29.98 in ENE 5.0 mph 5.0 mph 55% 0.00 in SCT
17:30 83.4 °F 67.6 °F 29.98 in ENE 5.0 mph 5.0 mph 59% 0.00 in SCT
17:40 83.3 °F 67.5 °F 29.98 in ENE 5.0 mph 5.0 mph 59% 0.00 in SCT
17:45 83.4 °F 66.6 °F 29.98 in North 5.0 mph 5.0 mph 57% 0.00 in CLR
17:50 83.4 °F 67.6 °F 29.98 in WNW 5.0 mph 5.0 mph 59% 0.00 in CLR
17:55 83.0 °F 67.2 °F 29.98 in NNE 5.0 mph 5.0 mph 59% 0.00 in SCT
18:00 82.3 °F 67.5 °F 29.98 in ENE 5.0 mph 5.0 mph 61% 0.00 in SCT
18:10 80.9 °F 67.1 °F 29.98 in ENE 5.0 mph 5.0 mph 63% 0.00 in SCT
18:15 80.4 °F 66.6 °F 29.98 in ENE 3.0 mph 5.0 mph 63% 0.00 in SCT
18:20 79.9 °F 66.2 °F 29.99 in ENE 3.0 mph 3.0 mph 63% 0.00 in SCT
18:25 79.5 °F 65.8 °F 29.99 in ENE 3.0 mph 3.0 mph 63% 0.00 in SCT
18:30 79.3 °F 65.6 °F 29.99 in ENE 3.0 mph 3.0 mph 63% 0.00 in SCT
18:35 79.1 °F 65.9 °F 29.99 in ENE 3.0 mph 3.0 mph 64% 0.00 in SCT
18:40 79.0 °F 66.2 °F 29.99 in ENE 3.0 mph 3.0 mph 65% 0.00 in SCT
18:45 78.9 °F 66.1 °F 29.99 in ENE 3.0 mph 3.0 mph 65% 0.00 in SCT
18:50 78.8 °F 66.5 °F 29.99 in ENE 3.0 mph 3.0 mph 66% 0.00 in SCT
18:55 78.6 °F 66.3 °F 29.99 in ENE 3.0 mph 3.0 mph 66% 0.00 in SCT
19:00 78.5 °F 66.2 °F 29.99 in ENE 3.0 mph 3.0 mph 66% 0.00 in SCT
19:05 78.3 °F 66.4 °F 29.99 in ENE 3.0 mph 3.0 mph 67% 0.00 in SCT
19:10 78.1 °F 66.2 °F 29.99 in ENE 3.0 mph 3.0 mph 67% 0.00 in SCT
19:15 77.9 °F 66.9 °F 29.99 in ENE 3.0 mph 3.0 mph 69% 0.00 in SCT
19:20 77.6 °F 66.6 °F 29.98 in ENE 3.0 mph 3.0 mph 69% 0.00 in SCT
19:25 77.3 °F 66.7 °F 29.98 in ENE 3.0 mph 3.0 mph 70% 0.00 in SCT
19:30 77.0 °F 66.5 °F 29.99 in ENE 3.0 mph 3.0 mph 70% 0.00 in SCT
19:35 76.8 °F 66.3 °F 29.99 in ENE 3.0 mph 3.0 mph 70% 0.00 in SCT
19:40 76.6 °F 66.1 °F 29.99 in ENE 3.0 mph 3.0 mph 70% 0.00 in SCT
19:45 76.4 °F 66.3 °F 29.99 in ENE 3.0 mph 3.0 mph 71% 0.00 in SCT
19:50 76.2 °F 66.1 °F 29.99 in ENE 3.0 mph 3.0 mph 71% 0.00 in SCT
19:55 76.0 °F 66.3 °F 29.99 in ENE 3.0 mph 3.0 mph 72% 0.00 in SCT
20:00 75.7 °F 66.4 °F 29.99 in ENE 3.0 mph 3.0 mph 73% 0.00 in SCT
20:05 75.4 °F 66.6 °F 29.99 in ENE 3.0 mph 3.0 mph 74% 0.00 in SCT
20:10 75.2 °F 66.7 °F 29.99 in ENE 3.0 mph 3.0 mph 75% 0.00 in SCT
20:15 74.9 °F 66.8 °F 29.99 in NE 3.0 mph 3.0 mph 76% 0.00 in SCT
20:20 74.7 °F 66.6 °F 29.99 in NE 3.0 mph 3.0 mph 76% 0.00 in SCT
20:25 74.4 °F 66.7 °F 29.99 in NE 3.0 mph 3.0 mph 77% 0.00 in SCT
20:30 74.2 °F 66.5 °F 30.00 in NE 3.0 mph 3.0 mph 77% 0.00 in SCT
20:40 73.8 °F 66.5 °F 30.00 in NE 3.0 mph 3.0 mph 78% 0.00 in SCT
20:45 73.6 °F 66.7 °F 30.00 in NE 3.0 mph 3.0 mph 79% 0.00 in SCT
20:50 73.5 °F 66.9 °F 30.00 in NE 3.0 mph 3.0 mph 80% 0.00 in SCT
20:55 73.3 °F 67.1 °F 30.00 in NE 3.0 mph 3.0 mph 81% 0.00 in SCT
21:00 73.3 °F 67.5 °F 30.00 in NE 3.0 mph 3.0 mph 82% 0.00 in SCT
21:05 73.2 °F 67.4 °F 30.00 in NE 3.0 mph 3.0 mph 82% 0.00 in SCT
21:10 73.1 °F 67.3 °F 30.01 in NE 3.0 mph 3.0 mph 82% 0.00 in SCT
21:15 73.0 °F 67.5 °F 30.01 in NE 3.0 mph 3.0 mph 83% 0.00 in FEW
21:20 72.9 °F 67.4 °F 30.01 in NE 3.0 mph 3.0 mph 83% 0.00 in FEW
21:25 72.8 °F 67.3 °F 30.01 in NE 3.0 mph 3.0 mph 83% 0.00 in FEW
21:30 72.7 °F 67.2 °F 30.01 in NE 3.0 mph 3.0 mph 83% 0.00 in FEW
21:40 72.7 °F 67.6 °F 30.01 in NE 3.0 mph 3.0 mph 84% 0.00 in FEW
21:45 72.8 °F 67.3 °F 30.01 in NE 3.0 mph 3.0 mph 83% 0.00 in FEW
21:50 72.7 °F 67.6 °F 30.01 in NE 3.0 mph 3.0 mph 84% 0.00 in FEW
21:55 72.6 °F 67.5 °F 30.01 in NE 3.0 mph 3.0 mph 84% 0.00 in FEW
22:00 72.5 °F 67.4 °F 30.02 in NE 3.0 mph 3.0 mph 84% 0.00 in FEW
22:10 72.2 °F 67.1 °F 30.02 in NE 3.0 mph 3.0 mph 84% 0.00 in FEW
22:15 72.1 °F 67.0 °F 30.02 in NE 1.0 mph 3.0 mph 84% 0.00 in FEW
22:20 72.0 °F 66.9 °F 30.02 in ENE 1.0 mph 1.0 mph 84% 0.00 in FEW
22:30 71.8 °F 67.0 °F 30.02 in ENE 1.0 mph 1.0 mph 85% 0.00 in FEW
22:40 71.8 °F 66.7 °F 30.02 in ENE 1.0 mph 1.0 mph 84% 0.00 in FEW
22:45 71.9 °F 66.8 °F 30.03 in ENE 1.0 mph 1.0 mph 84% 0.00 in FEW
22:50 71.8 °F 66.7 °F 30.03 in ENE 1.0 mph 1.0 mph 84% 0.00 in FEW
22:55 71.7 °F 66.6 °F 30.02 in ENE 1.0 mph 1.0 mph 84% 0.00 in FEW
23:00 71.6 °F 66.8 °F 30.03 in ENE 1.0 mph 1.0 mph 85% 0.00 in FEW
23:05 71.5 °F 66.7 °F 30.03 in ENE 1.0 mph 1.0 mph 85% 0.00 in FEW
23:10 71.3 °F 66.6 °F 30.03 in ENE 1.0 mph 1.0 mph 85% 0.00 in FEW
23:15 71.2 °F 66.5 °F 30.03 in ENE 1.0 mph 1.0 mph 85% 0.00 in FEW
23:20 71.1 °F 66.0 °F 30.03 in ENE 1.0 mph 1.0 mph 84% 0.00 in FEW
23:25 71.1 °F 66.0 °F 30.03 in ENE 1.0 mph 1.0 mph 84% 0.00 in FEW
23:30 71.2 °F 66.1 °F 30.03 in ENE 1.0 mph 1.0 mph 84% 0.00 in FEW
23:35 71.1 °F 66.4 °F 30.03 in ENE 1.0 mph 1.0 mph 85% 0.00 in FEW
23:40 71.1 °F 66.0 °F 30.03 in ENE 1.0 mph 1.0 mph 84% 0.00 in FEW
23:45 71.0 °F 66.3 °F 30.03 in ENE 1.0 mph 1.0 mph 85% 0.00 in FEW
23:50 70.9 °F 66.2 °F 30.03 in ENE 1.0 mph 1.0 mph 85% 0.00 in FEW
23:55 70.7 °F 66.3 °F 30.03 in ENE 1.0 mph 1.0 mph 86% 0.00 in FEW
Piedmont Bend
Compliments of Weather Underground - 4 mb